Weather Roundup
Issued by NWS Springfield, MO

Home | Current Version | Previous Version | Text Only | Print | Product List | Glossary On
Versions: 1 2 3 4 5 6 7 8 9 10 11 12 13 14 15 16 17 18 19 20 21 22 23 24 25 26 27 28 29 30 31 32 33 34 35 36 37 38 39 40 41 42 43 44 45 46 47 48 49 50
000
NZUS99 KSGF 042107
HRRSGF

HOURLY WEATHER
NATIONAL WEATHER SERVICE SPRINGFIELD MO
300 PM CST SUN DEC 04 2016

......SGF CWA......

CITY           SKY/WX    TMP DP  RH WIND       PRES   REMARKS
SPRINGFIELD    CLOUDY    45  38  76 W10       30.00R
JOPLIN         CLOUDY    46  40  79 W12       30.03R
WEST PLAINS    CLOUDY    44  41  89 W6        29.97F
ROLLA          CLOUDY    41  38  89 W9        29.95R
OSAGE BEACH    CLOUDY    43  39  86 W8        29.99R
BRANSON        CLOUDY    45  39  81 NW9       30.01R

......SURROUNDING SGF CWA......

CITY           SKY/WX    TMP DP  RH WIND       PRES   REMARKS
CHANUTE        PTSUNNY   49  38  65 W8        30.03R
PARSONS        MOSUNNY   49  38  65 CALM      30.04R
COFFEYVILLE    SUNNY     51  39  63 NW3       30.04R
EMPORIA        SUNNY     44  36  73 W5        30.00S
GROVE OK       CLOUDY    50  43  76 NW6       30.04S
ROGERS AR      CLOUDY    45  39  79 W7        30.02R
SILOAM SPRINGS CLOUDY    46  37  71 NW6       30.03R
HARRISON AR    CLOUDY    45  41  86 VRB6      29.99S
NEAR YELLVILLE CLOUDY    46  37  71 NW5       29.97F

......KANSAS AND MISSOURI......

CITY           SKY/WX    TMP DP  RH WIND       PRES   REMARKS
KANSAS CTY INT PTSUNNY   45  35  68 W8        29.97R
DOWNTOWN KC    SUNNY     46  38  73 W10       29.98R
COLUMBIA       CLOUDY    39  37  92 W9        29.97R WCI  33
SEDALIA        CLOUDY    44  38  79 W8        29.99R
ST JOSEPH      CLOUDY    39  35  86 SW8       29.97R WCI  33
ST LOUIS       CLOUDY    41  36  82 W9        29.94S
SPIRIT OF STL  CLOUDY    40  38  93 W13       29.95R WCI  32
KIRKSVILLE     CLOUDY    36  34  92 W6        29.94R WCI  31
WICHITA        MOSUNNY   51  37  58 SW6       30.01S
TOPEKA         CLOUDY    39  34  82 SW8       29.99S WCI  33
OLATHE         MOSUNNY   42  35  76 W8        29.98R

......TENNESSEE......

CITY           SKY/WX    TMP DP  RH WIND       PRES   REMARKS
MEMPHIS        DRZL/FOG  46  45  96 NW8       29.97F VSB 1
NASHVILLE      DRIZZLE   48  46  93 S6        29.94R FOG

......ARKANSAS.......

CITY           SKY/WX    TMP DP  RH WIND       PRES   REMARKS
FAYETTEVILLE   CLOUDY    45  41  86 NW9       30.02R
FT SMITH       CLOUDY    49  43  80 W7        30.03F
LITTLE ROCK    CLOUDY    46  44  93 NW12      30.01R

......OKLAHOMA.......

CITY           SKY/WX    TMP DP  RH WIND       PRES   REMARKS
TULSA          CLOUDY    54  40  59 NW9       30.03S
PONCA CITY     SUNNY     50  38  63 W6        30.04S
MCALESTER      CLOUDY    50  41  71 N8        30.06R
OKLAHOMA CITY  MOSUNNY   53  39  59 NW9       30.05S

......IOWA............

CITY           SKY/WX    TMP DP  RH WIND       PRES   REMARKS
DES MOINES     CLOUDY    38  34  85 W10       29.90R FOG     WCI  31
QUAD CITIES    LGT SNOW  33  30  88 SE6       29.92S FOG     WCI  28

......ILLINOIS........

CITY           SKY/WX    TMP DP  RH WIND       PRES   REMARKS
QUINCY         CLOUDY    34  33  96 W6        29.92S WCI  29
CHICAGO        HVY SNOW  32  31  96 SE3       29.91F VSB 1/4



USA.gov is the U.S. government's official web portal to all federal, state and local government web resources and services.